Regional Weather Roundup
Issued by NWS Newport/Morehead, NC

Current Version | Previous Version | Graphics & Text | Print | Product List | Glossary Off
Versions: 1 2 3 4 5 6 7 8 9 10 11 12 13 14 15 16 17 18 19 20 21 22 23 24 25 26 27 28 29 30 31 32 33 34 35 36 37 38 39 40 41 42 43 44 45 46 47 48 49 50

000
ASUS42 KMHX 160710
RWRMHX
WEATHER ROUNDUP FOR EASTERN NORTH CAROLINA
NATIONAL WEATHER SERVICE NEWPORT/MOREHEAD CITY NC
300 AM EDT TUE SEP 16 2014

NOTE: "FAIR" INDICATES FEW OR NO CLOUDS BELOW 12,000 FEET
WITH NO SIGNIFICANT WEATHER AND/OR OBSTRUCTIONS TO VISIBILITY

NCZ015>017-031-032-045>047-102-103-160800-
NORTH COAST

CITY           SKY/WX    TMP DP  RH WIND       PRES   REMARKS
EDENTON        CLOUDY    70  65  84 S6        30.07S
ELIZABETH CITY CLOUDY    69  64  84 S7        30.06F
KITTY HAWK     CLOUDY    70  62  75 CALM      30.05S
MANTEO         CLOUDY    72  63  73 S5        30.06F

$$

NCZ045>047-081-094-103-104-160800-
CENTRAL COAST

CITY           SKY/WX    TMP DP  RH WIND       PRES   REMARKS
FRISCO         CLOUDY    65  64  97 CALM      30.06F
SWANQUARTER      N/A     72 N/A N/A S7        30.03S

$$

NCZ095-097-098-100-101-160800-
SOUTHERN COAST

CITY           SKY/WX    TMP DP  RH WIND       PRES   REMARKS
BEAUFORT       PTCLDY    73  67  81 CALM      30.05F
CEDAR ISLAND     N/A     72 N/A N/A S2        30.09F
JACKSONVILLE   CLOUDY    70  68  93 CALM      30.06F
NEWPORT        NOT AVBL
PINEY ISLAND   CLOUDY    73  66  78 CALM      30.05F
WILMINGTON     CLOUDY    72  68  87 CALM      30.06F


$$

NCZ011>013-027>030-043-044-078>080-089-090>093-098-160800-
COASTAL PLAIN

CITY           SKY/WX    TMP DP  RH WIND       PRES   REMARKS
AHOSKIE        CLOUDY    65  64  95 CALM      30.06F
CLINTON        CLOUDY    69  69 100 CALM      30.07F
ELIZABETHTOWN  CLOUDY    71  70  98 CALM      30.06F
GOLDSBORO      CLOUDY    69  68  98 S2        30.05F
GREENVILLE     CLOUDY    70  68  94 CALM      30.08F
HAVELOCK       MOCLDY    70  65  84 CALM      30.07F
KENANSVILLE    NOT AVBL
KINSTON        CLOUDY    68  67  96 CALM      30.07F
NEW BERN       MOCLDY    71  66  84 S3        30.07F
RICHLANDS      MOCLDY    68  64  88 CALM      30.06F
ROANOKE RAPIDS NOT AVBL
ROCKY MOUNT    CLOUDY    67  65  93 CALM      30.06F
WASHINGTON     CLOUDY    69  66  90 CALM      30.07F
WHITEVILLE     CLOUDY    71  69  96 CALM      30.06F FOG

$$

AMZ130-135-150-152-154-156-158-170-250-252-270-ANZ085-086-088-633-658-670-160800-
MARINE OBSERVATIONS

STATION/POSITION TIME  TEMP    WIND        PRES    WAVE   SWELL
                       AIR SEA DIR/SP/G            HT/PER HT/PER
                 (UTC) (F)     (DEG/KT/KT) (MB)    (FT/S) (FT/S)
CHESAPEAKE LIGHT 0600   71     190/ 13/ 14 1018.3
BUOY 44014       0700   72 79  180/  8/ 10 1017.2    2/ 7   2/ 7
DUCK             0700   71                   N/A
2E DUCK          0600                        N/A     2/13
OREGON INLET     0700   71                   N/A
BUOY 44095       0700      76                N/A     2/ 7
20E OREGON INLET NOT AVBL
HATTERAS CG      0700   72                   N/A
DIAMOND BUOY     0700   74     310/  4/  6 1017.9    2/ 8   2/ 8
CAPE LOOKOUT     0700   75     130/  6/  6 1017.5
BEAUFORT LAB     0700   74                   N/A
30 SE NEW RIVER  0700   77 82   40/  2/  2 1018.4    2/ 8   2/ 8
5 SE WRIGHTSVILL 0600   74 81   80/  8/  8   N/A
BUOY 41002       0638   80 83  270/  8/ 10 1018.4    3/ 6   3/ 6
BUOY 41004       0700   81 83  230/  2/  4 1017.5    2/ 8   2/ 8

$$


USA.gov is the U.S. government's official web portal to all federal, state and local government web resources and services.